Torna al catalogo

PROSPERO

BLACK ARROW

AttivoScienzaPO
NORAD 5580·PAYLOAD·🇬🇧 United Kingdom

Lanciato Oct 28, 1971 da Woomera Range Complex

Loading…

Prossimi Passaggi (prossime 24 ore)

TLE

AggiornatoSource: Space-Track

Epoca: Sep 14, 2026, 07:28 UTC

1 05580U 71093A   26257.31141714  .00001247  00000-0  26498-3 0  9998
2 05580  82.0385 212.5899 0499882 331.7224  25.7604 14.01844152761013

Traccia PROSPERO in tempo reale con AllMySat

Download on the App Store